Wind_Speed
10 9 8 8 7 7 7 6 5 5 5 4 4 4 4 3 3 2 2 2 2 2 2 2 2 2 1 0 0 1 1 2 3 4 4 5 5 5 6 7 7 8 8
11 11 10 9 9 8 8 7 7 6 6 6 5 5 5 5 4 4 3 3 3 3 3 3 3 2 1 1 1 2 2 3 3 4 4 5 5 6 6 7 7 8 8
12 12 11 11 10 10 10 9 8 8 8 7 6 6 5 5 5 5 4 4 4 4 3 3 4 3 2 2 3 3 3 3 4 5 5 5 6 6 7 7 8 8 9
14 14 13 12 12 11 11 11 10 10 9 8 7 7 7 6 6 6 5 5 5 4 5 5 4 4 4 4 4 4 4 5 5 5 5 6 6 7 7 8 8 8 9
16 15 15 14 14 13 13 13 12 11 11 10 9 8 8 8 7 7 7 6 5 5 5 5 6 5 5 5 5 5 5 6 6 6 6 6 7 7 8 8 9 9 10
18 17 16 16 16 15 15 15 14 14 13 12 12 11 10 10 9 9 8 8 7 7 7 6 6 7 7 6 6 6 6 7 7 7 7 7 7 8 8 9 9 10 10
19 18 18 18 17 17 17 17 16 16 15 14 14 13 12 11 11 11 10 10 9 8 8 8 8 8 8 8 8 8 8 8 8 8 8 7 8 8 9 9 10 10 11
21 20 20 20 19 19 18 18 18 18 17 16 15 15 14 13 13 13 12 12 11 10 10 10 9 9 9 10 10 9 9 8 8 9 9 9 9 9 10 10 11 11 11
23 23 22 22 22 21 20 20 20 20 19 18 18 17 16 15 15 15 14 14 13 12 12 12 11 11 11 11 11 11 10 10 10 10 11 10 10 11 11 12 12 12 13
26 25 25 24 24 24 23 22 22 21 21 20 20 19 18 17 17 16 16 16 15 14 14 13 13 13 12 12 12 12 12 11 11 11 12 12 12 12 13 13 13 14 14
28 27 26 26 26 26 25 24 24 23 23 22 22 21 20 19 19 18 18 17 17 16 16 16 15 15 14 14 14 13 14 13 13 13 13 13 13 13 14 14 15 15 15
29 28 28 28 28 29 28 27 26 25 25 24 24 23 22 21 20 20 19 19 19 19 18 18 18 17 16 16 15 15 15 15 15 14 14 14 14 15 15 16 16 17 17
30 30 29 29 29 29 28 28 28 27 26 26 26 25 24 23 22 21 21 21 21 21 21 20 20 19 18 18 17 17 17 17 17 17 16 16 16 17 17 17 18 18 19
32 32 31 30 30 30 30 30 30 29 28 28 28 27 26 25 25 24 24 23 23 23 22 22 22 21 21 20 20 19 19 19 19 19 19 19 18 19 19 20 20 20 20
34 33 33 32 32 31 32 31 31 31 30 29 29 29 28 28 27 27 26 26 26 25 25 24 24 24 23 23 23 22 21 21 21 21 21 21 21 21 21 22 22 22 23
35 34 34 33 33 33 33 33 33 33 32 32 31 31 31 30 30 29 28 28 28 28 27 26 26 25 25 25 25 24 24 23 23 23 24 24 24 23 24 24 24 25 25
36 35 35 34 34 34 33 34 34 34 33 33 33 33 33 33 32 31 31 30 30 30 29 29 28 27 27 27 27 26 26 26 26 26 26 26 26 26 26 27 27 27 27
37 37 36 36 36 35 34 35 35 35 35 35 35 35 35 35 34 34 33 32 32 31 31 30 30 30 29 29 29 28 28 28 28 28 28 28 29 29 28 28 28 29 30
38 38 37 36 36 36 36 35 35 35 36 36 36 36 36 37 37 36 35 34 34 33 33 32 32 32 31 30 30 30 30 30 30 30 30 30 31 31 30 30 30 31 31
38 38 38 37 37 37 37 36 36 36 36 36 37 38 38 38 38 38 37 36 35 35 35 34 34 34 33 32 32 32 33 33 33 32 32 32 33 33 33 32 32 33 33
38 38 38 38 38 38 37 37 37 37 37 37 38 39 40 39 39 40 39 37 37 37 37 37 36 35 35 35 35 35 34 35 35 35 34 34 35 35 35 35 35 35 35
38 40 40 39 39 39 38 39 39 40 40 40 40 40 41 41 41 41 41 40 39 38 39 39 38 37 37 37 37 37 36 36 35 36 36 36 36 36 36 36 36 36 36
39 40 41 41 40 40 41 41 41 42 42 42 42 42 42 43 43 42 42 42 41 40 40 40 39 38 38 38 38 38 37 37 36 36 36 36 36 36 36 36 37 37 37
39 41 41 42 42 42 42 42 42 42 43 43 43 44 44 44 44 44 43 44 43 42 41 40 39 39 39 38 39 39 39 38 38 37 36 36 36 36 37 37 37 38 38
40 41 41 41 42 43 44 45 44 43 43 44 45 44 44 45 45 45 45 44 44 43 42 41 41 41 41 40 40 39 39 38 38 38 37 37 38 38 38 38 38 39 39
41 42 42 42 43 44 45 46 46 45 45 44 45 45 46 46 46 46 45 44 44 43 43 43 43 43 42 41 41 41 40 39 39 39 39 39 39 39 39 38 39 40 39
Wind_Direction
223 223 224 222 221 221 221 225 234 242 251 261 265 265 270 272 267 250 245 226 212 208 210 205 203 205 215 230 10 356 355 355 358 0 1 0 358 359 358 356 355 355 353
226 227 227 226 227 227 229 231 236 242 250 256 261 262 264 265 262 255 252 241 231 229 229 224 225 233 247 275 314 326 330 328 330 337 344 346 346 347 346 347 347 346 347
228 228 230 230 231 232 234 236 238 242 247 252 256 258 261 262 259 257 252 245 241 241 237 232 235 241 251 276 291 304 312 312 314 319 327 332 333 335 336 337 338 338 339
230 231 232 233 233 234 237 240 243 244 246 248 252 254 257 259 256 254 251 248 244 245 243 244 246 248 256 270 285 296 302 306 308 308 311 317 322 326 330 330 329 329 330
233 232 233 235 236 237 239 242 243 245 246 247 249 250 252 255 255 254 252 251 248 248 250 252 256 259 263 268 278 290 301 305 305 305 307 310 313 317 322 323 322 322 324
234 234 234 237 239 241 242 244 244 244 245 246 248 249 250 252 254 255 253 251 251 253 254 255 259 262 265 270 276 286 297 300 302 303 305 307 308 312 317 319 319 319 320
235 236 237 240 241 243 245 245 245 244 243 245 248 250 251 252 254 256 255 253 254 257 258 258 260 262 265 271 275 284 290 293 300 301 301 304 307 310 313 316 317 317 318
237 238 239 241 243 244 246 247 247 246 244 245 248 250 251 252 254 256 256 256 257 258 259 261 262 265 269 273 274 279 282 286 292 296 298 300 304 307 309 311 313 313 313
239 240 241 242 244 244 246 246 247 247 246 246 247 248 250 251 254 256 257 257 257 258 260 262 264 266 270 272 274 276 278 282 288 291 293 296 299 302 305 306 308 309 309
240 241 243 243 245 246 247 247 248 248 246 246 248 248 248 250 252 255 256 256 257 259 261 263 265 267 269 271 273 274 276 280 284 287 291 294 295 298 301 303 303 304 305
241 243 244 245 246 247 248 249 249 249 248 247 248 249 249 250 252 254 255 256 257 259 261 264 266 268 268 270 272 273 274 277 281 285 289 292 294 296 299 301 301 301 302
241 244 246 247 247 247 247 248 248 249 248 248 247 248 249 249 250 252 255 257 258 260 262 264 267 267 267 269 270 272 274 275 278 281 286 289 292 295 297 299 300 300 301
241 244 246 247 246 245 247 248 248 249 249 249 248 247 248 249 250 251 255 258 259 261 262 264 265 266 267 267 269 271 273 275 276 278 283 286 289 292 294 296 298 298 299
242 244 244 244 244 245 247 248 248 249 249 250 249 248 248 250 251 252 255 258 260 261 262 263 263 265 265 265 267 269 271 274 275 276 279 283 287 290 292 294 295 296 296
243 243 242 243 246 247 248 249 248 249 250 250 250 251 250 250 252 254 256 259 262 262 262 263 263 264 264 265 266 268 270 272 274 275 277 279 283 287 290 291 293 294 295
245 244 243 244 245 248 249 250 249 249 250 251 251 251 251 251 253 255 257 259 261 263 263 263 263 264 264 265 266 267 269 272 273 275 276 278 281 284 287 289 290 291 292
246 245 245 245 246 248 249 249 248 248 249 251 252 252 252 253 254 255 256 259 260 262 263 263 263 264 264 264 266 268 269 271 272 274 275 277 280 283 285 286 287 289 290
245 245 245 247 248 249 250 250 250 250 250 250 251 252 252 254 255 255 257 258 260 261 262 263 263 263 264 264 266 267 269 271 273 273 274 276 278 280 283 285 287 288 289
245 245 246 248 248 249 251 252 251 250 250 251 252 253 253 254 255 256 256 258 259 260 261 262 263 263 264 264 265 266 269 270 272 273 274 276 277 279 280 282 285 288 289
245 245 247 248 249 248 250 252 252 252 252 252 252 253 253 254 255 256 256 258 258 259 260 262 263 263 264 265 266 267 269 270 272 273 274 276 277 278 279 282 284 286 288
247 247 248 249 249 250 250 251 252 253 253 253 253 253 254 255 256 255 255 258 260 260 260 261 262 264 265 266 267 268 269 271 272 273 274 275 277 278 280 281 284 285 286
247 247 249 250 250 251 250 251 252 252 253 254 254 255 255 255 255 256 257 257 260 261 261 261 261 263 264 266 267 267 269 270 272 274 274 274 276 278 280 281 282 284 285
249 249 249 250 251 251 252 252 252 253 254 255 256 256 256 256 256 257 257 257 258 260 262 261 262 263 265 265 267 268 269 270 273 274 274 275 276 278 279 281 281 284 285
250 250 249 251 252 252 253 252 252 253 255 256 257 257 257 257 256 257 258 258 258 260 262 262 263 263 265 267 267 269 270 271 272 273 274 275 276 278 279 280 281 282 283
252 251 251 252 253 253 253 253 253 254 256 257 257 257 257 257 257 257 257 257 258 259 260 261 263 265 266 267 267 269 270 271 272 273 273 274 277 278 278 279 280 282 283
254 253 253 254 254 254 254 254 254 256 258 258 257 256 257 258 258 256 257 257 257 258 260 261 263 264 265 266 266 268 269 270 271 273 273 274 275 277 279 280 279 281 282
Height
5872 5872 5873 5874 5874 5875 5875 5876 5877 5877 5878 5878 5878 5879 5879 5879 5879 5878 5878 5878 5878 5878 5878 5878 5877 5877 5877 5877 5876 5876 5876 5875 5874 5873 5872 5871 5871 5870 5869 5868 5867 5865 5864
5870 5871 5872 5872 5873 5874 5874 5875 5876 5876 5877 5877 5878 5878 5878 5878 5878 5878 5878 5878 5878 5878 5878 5877 5877 5877 5877 5877 5876 5876 5875 5875 5874 5873 5872 5871 5870 5869 5868 5867 5866 5865 5863
5868 5869 5870 5871 5872 5873 5873 5874 5875 5875 5876 5876 5877 5877 5877 5877 5878 5877 5877 5877 5877 5877 5877 5877 5877 5877 5876 5876 5876 5875 5875 5874 5873 5872 5872 5871 5870 5869 5867 5866 5865 5864 5863
5866 5867 5868 5869 5870 5871 5872 5872 5873 5874 5875 5875 5876 5876 5876 5876 5877 5877 5877 5877 5877 5876 5876 5876 5876 5876 5876 5875 5875 5874 5874 5873 5872 5872 5871 5870 5869 5868 5867 5865 5864 5863 5862
5863 5865 5866 5867 5868 5869 5870 5870 5871 5872 5873 5873 5874 5875 5875 5875 5875 5876 5876 5876 5876 5875 5875 5875 5875 5875 5875 5874 5874 5873 5873 5872 5871 5870 5869 5869 5868 5867 5866 5864 5863 5862 5860
5860 5862 5863 5864 5866 5866 5867 5868 5869 5870 5871 5872 5872 5873 5873 5874 5874 5874 5874 5874 5874 5874 5874 5874 5874 5874 5873 5873 5873 5872 5872 5871 5870 5869 5868 5867 5866 5865 5864 5863 5862 5860 5859
5857 5859 5860 5861 5862 5863 5864 5865 5866 5867 5868 5869 5870 5871 5871 5872 5872 5872 5873 5873 5873 5873 5873 5873 5872 5872 5872 5871 5871 5870 5870 5869 5868 5867 5867 5866 5865 5864 5863 5862 5860 5859 5857
5853 5855 5856 5858 5859 5860 5861 5862 5863 5864 5865 5866 5867 5868 5869 5869 5870 5870 5871 5871 5871 5871 5871 5871 5871 5870 5870 5869 5869 5869 5868 5867 5867 5866 5865 5864 5863 5862 5861 5860 5858 5857 5855
5849 5851 5852 5853 5855 5856 5857 5858 5859 5861 5862 5863 5864 5865 5866 5866 5867 5867 5868 5868 5869 5869 5869 5869 5868 5868 5868 5867 5867 5867 5866 5865 5865 5864 5863 5862 5861 5860 5859 5858 5856 5855 5854
5844 5846 5847 5849 5850 5851 5853 5854 5855 5856 5858 5859 5860 5861 5862 5863 5864 5864 5865 5865 5866 5866 5866 5866 5866 5865 5865 5865 5865 5864 5864 5863 5862 5861 5860 5860 5859 5858 5857 5855 5854 5853 5851
5838 5840 5842 5844 5845 5846 5847 5849 5850 5851 5853 5855 5856 5857 5858 5859 5860 5861 5861 5862 5862 5863 5863 5863 5862 5862 5862 5862 5862 5861 5861 5860 5859 5858 5858 5857 5856 5855 5854 5853 5851 5850 5848
5833 5834 5836 5838 5839 5840 5841 5843 5844 5846 5848 5849 5851 5852 5854 5855 5856 5857 5857 5858 5858 5859 5859 5859 5859 5859 5859 5859 5858 5858 5857 5857 5856 5855 5855 5854 5853 5852 5851 5849 5848 5847 5845
5826 5828 5829 5831 5831 5833 5835 5837 5838 5840 5842 5843 5845 5847 5848 5850 5851 5852 5853 5853 5854 5854 5855 5855 5855 5855 5855 5855 5854 5854 5853 5853 5852 5852 5851 5850 5849 5848 5847 5846 5845 5843 5842
5819 5821 5822 5824 5825 5827 5829 5831 5832 5834 5835 5837 5839 5841 5843 5844 5846 5847 5848 5848 5849 5849 5850 5850 5850 5850 5850 5850 5850 5849 5849 5849 5848 5848 5847 5846 5845 5844 5843 5842 5840 5839 5838
5811 5813 5815 5817 5819 5820 5822 5824 5825 5827 5829 5831 5833 5835 5836 5838 5840 5841 5842 5843 5843 5844 5844 5844 5845 5845 5845 5845 5845 5844 5844 5844 5843 5843 5842 5842 5841 5840 5839 5837 5836 5834 5833
5802 5805 5807 5809 5812 5813 5815 5816 5818 5820 5822 5824 5826 5828 5830 5831 5833 5835 5836 5837 5837 5837 5838 5838 5839 5839 5839 5839 5839 5839 5839 5838 5838 5837 5837 5836 5835 5834 5833 5832 5831 5829 5828
5793 5796 5799 5801 5803 5806 5807 5809 5811 5812 5814 5816 5818 5820 5822 5824 5826 5828 5829 5830 5830 5830 5831 5831 5832 5832 5832 5833 5833 5833 5833 5832 5832 5831 5831 5830 5829 5828 5827 5826 5825 5823 5822
5785 5787 5790 5793 5795 5797 5799 5801 5803 5805 5806 5808 5810 5812 5814 5816 5818 5820 5821 5822 5823 5823 5824 5824 5825 5825 5825 5826 5826 5826 5826 5825 5825 5825 5824 5823 5823 5822 5821 5819 5818 5817 5815
5776 5779 5782 5784 5787 5789 5791 5793 5794 5796 5798 5800 5802 5804 5806 5808 5810 5811 5813 5814 5815 5815 5816 5817 5817 5817 5818 5818 5818 5818 5818 5818 5818 5817 5817 5816 5815 5814 5814 5812 5811 5810 5808
5768 5771 5773 5776 5778 5780 5782 5784 5786 5788 5789 5791 5793 5796 5798 5800 5801 5802 5804 5805 5806 5807 5808 5809 5809 5810 5810 5810 5810 5810 5810 5810 5810 5809 5809 5808 5807 5806 5805 5804 5803 5802 5800
5759 5761 5764 5767 5769 5771 5773 5775 5777 5779 5782 5783 5785 5787 5789 5790 5792 5793 5795 5796 5797 5798 5799 5800 5801 5801 5801 5802 5802 5802 5802 5802 5801 5801 5800 5799 5799 5798 5797 5796 5795 5794 5792
5749 5752 5755 5757 5759 5761 5763 5765 5767 5770 5772 5774 5776 5777 5779 5780 5782 5783 5785 5787 5788 5789 5790 5790 5791 5791 5792 5793 5793 5793 5793 5794 5793 5792 5791 5790 5790 5789 5788 5787 5786 5785 5783
5740 5742 5745 5747 5749 5751 5752 5754 5757 5759 5762 5764 5765 5767 5768 5770 5772 5773 5775 5776 5778 5779 5779 5780 5781 5782 5783 5783 5783 5784 5784 5785 5784 5784 5782 5782 5781 5780 5779 5778 5777 5776 5774
5730 5732 5734 5736 5738 5740 5742 5744 5746 5749 5751 5753 5755 5756 5757 5758 5760 5762 5764 5765 5767 5768 5769 5771 5771 5772 5773 5774 5774 5774 5775 5774 5774 5775 5774 5773 5772 5771 5770 5769 5768 5767 5765
5719 5721 5723 5725 5727 5729 5731 5733 5735 5737 5740 5742 5743 5744 5746 5747 5749 5750 5752 5754 5756 5758 5759 5760 5761 5762 5763 5763 5764 5764 5764 5764 5764 5764 5765 5764 5763 5762 5761 5760 5759 5757 5756
5707 5709 5712 5714 5716 5717 5719 5721 5723 5725 5728 5730 5731 5732 5734 5736 5737 5739 5741 5743 5745 5747 5748 5750 5751 5752 5752 5753 5753 5754 5754 5754 5754 5754 5754 5754 5753 5753 5751 5750 5749 5748 5746